Location: Fernhill
(41.0167°S, 175.6333°E)
Time: 14:14:07
(UTC+00:00)

Geosat - Visible Passes

Search period start: 14 February 2026 00:00
Search period end: 24 February 2026 00:00
Orbit: 757 x 761 km, 108.0° (Epoch: 13 February)

Date Brightness Start Highest point End Pass type
(mag) Time Alt. Az. Time Alt. Az. Time Alt. Az.
14 Feb 4.2 15:50:27 10° SSE 15:55:30 68° ENE 15:58:36 23° NNW visible
15 Feb 5.6 15:12:36 10° SE 15:16:54 28° ENE 15:19:22 19° NNE visible
15 Feb 4.6 16:50:01 10° SSE 16:54:43 41° WSW 16:59:24 10° NW visible
16 Feb 6.6 14:37:02 10° E 14:38:03 11° E 14:39:04 10° ENE visible
16 Feb 4.0 16:11:20 10° SSE 16:16:25 86° ENE 16:20:12 18° NNW visible
17 Feb 5.2 15:33:15 10° SE 15:37:53 35° ENE 15:40:59 18° NNE visible
17 Feb 4.9 17:11:04 10° S 17:15:33 33° SW 17:20:00 10° WNW visible
18 Feb 6.4 14:56:26 10° ESE 14:59:06 14° ENE 15:01:46 10° NE visible
18 Feb 4.0 16:32:15 10° SSE 16:37:19 75° WSW 16:41:50 13° NW visible
19 Feb 4.9 15:53:59 10° SE 15:58:50 46° ENE 16:02:39 16° N visible
20 Feb 6.2 15:16:37 10° ESE 15:20:07 19° ENE 15:23:28 10° NNE visible
20 Feb 4.2 16:53:13 10° SSE 16:58:11 59° WSW 17:03:06 10° NW visible
21 Feb 4.5 16:14:47 10° SSE 16:19:47 59° ENE 16:24:22 12° NNW visible
22 Feb 5.9 15:37:04 10° SE 15:41:08 24° ENE 15:45:10 10° NNE visible
22 Feb 4.4 17:14:13 10° SSE 17:19:03 46° WSW 17:23:49 10° NW visible
23 Feb 4.1 16:35:38 10° SSE 16:40:42 76° ENE 16:45:43 10° NNW visible
